Date String (YYYY-MM-DD hh:mm:ss) UTC,Instrument flags,Ambient pressure (hPa),Sample flow (lpm),Bypass flow (lpm),Sample temperature (°C),Ambient temperature (°C),ASC tube jacket temperature (°C),LED temperature (°C),Box temperature (°C),Sample RH (%),Span deviation,Mass concentration (μg/m³),Mass concentration (μg/m³),Mass concentration (μg/m³)
DateTimeUTC,F1_M11,P_M11,Q1_M11,Q2_M11,T1_M11,T2_M11,T3_M11,T4_M11,T5_M11,U1_M11,ZSPAN_M11,X0_M11,X2_M11,X1_M11
2022-10-03 01:00:00,,0828.3,5.00,0.00,29.8,26.7,00.0,38.4,31.5,24.7,0000.0,0006.36,0003.35,0003.11
2022-10-03 01:01:00,,0828.3,5.01,0.00,29.7,27.0,00.0,38.4,31.4,24.9,0000.0,0006.53,0003.40,0003.14
2022-10-03 01:02:00,,0828.4,5.00,0.00,29.6,27.3,00.0,38.4,31.4,24.9,0000.0,0006.65,0003.44,0003.16
2022-10-03 01:03:00,,0828.4,5.00,0.00,29.6,27.5,00.0,38.3,31.4,24.8,0000.0,0006.52,0003.42,0003.15
2022-10-03 01:04:00,,0828.4,5.00,0.00,29.6,27.8,00.0,38.3,31.4,24.8,0000.0,0008.02,0003.42,0003.12
2022-10-03 01:05:00,,0828.3,5.00,0.00,29.6,28.0,00.0,38.3,31.5,24.8,0000.0,0008.32,0003.43,0003.10
2022-10-03 01:06:00,,0828.3,5.01,0.00,29.6,28.1,00.0,38.3,31.5,24.8,0000.0,0008.32,0003.42,0003.07
2022-10-03 01:07:00,,0828.4,4.99,0.00,29.6,28.3,00.0,38.3,31.5,24.4,0000.0,0008.53,0003.40,0003.02
2022-10-03 01:08:00,,0828.4,5.01,0.00,29.7,28.4,00.0,38.3,31.5,24.1,0000.0,0008.53,0003.36,0002.96
2022-10-03 01:09:00,,0828.4,4.99,0.00,29.7,28.4,00.0,38.3,31.6,24.0,0000.0,0008.59,0003.36,0002.93
2022-10-03 01:10:00,,0828.4,5.02,0.00,29.7,28.5,00.0,38.4,31.6,24.0,0000.0,0008.48,0003.35,0002.92
2022-10-03 01:11:00,,0828.4,4.99,0.00,29.7,28.6,00.0,38.4,31.6,24.0,0000.0,0007.79,0003.33,0002.89
2022-10-03 01:12:00,,0828.4,5.01,0.00,29.7,28.7,00.0,38.4,31.7,23.8,0000.0,0007.73,0003.30,0002.88
2022-10-03 01:13:00,,0828.5,4.99,0.00,29.8,28.7,00.0,38.4,31.7,23.7,0000.0,0007.63,0003.27,0002.86
2022-10-03 01:14:00,,0828.5,5.00,0.00,29.8,28.8,00.0,38.4,31.7,23.7,0000.0,0007.57,0003.24,0002.86
2022-10-03 01:15:00,,0828.5,5.00,0.00,29.8,28.8,00.0,38.4,31.7,23.8,0000.0,0006.71,0003.23,0002.85
2022-10-03 01:16:00,,0828.7,4.99,0.00,29.8,28.8,00.0,38.4,31.8,23.7,0000.0,0005.22,0003.19,0002.85
2022-10-03 01:17:00,,0828.6,5.01,0.00,29.9,28.8,00.0,38.5,31.8,23.8,0000.0,0005.08,0003.18,0002.85
2022-10-03 01:18:00,,0828.9,4.98,0.00,29.9,28.9,00.0,38.5,31.8,23.8,0000.0,0004.90,0003.18,0002.85
2022-10-03 01:19:00,,0829.0,5.01,0.00,29.9,28.9,00.0,38.5,31.8,23.7,0000.0,0005.12,0003.18,0002.85
2022-10-03 01:20:00,,0829.1,5.01,0.00,29.9,27.7,00.0,38.5,31.8,23.7,0000.0,0005.78,0003.19,0002.85
2022-10-03 01:21:00,,0829.0,5.00,0.00,29.9,26.6,00.0,38.5,31.7,23.0,0000.0,0005.87,0003.19,0002.85
2022-10-03 01:22:00,,0829.1,5.00,0.00,29.8,26.5,00.0,38.4,31.6,23.1,0000.0,0007.11,0003.20,0002.85
2022-10-03 01:23:00,,0828.9,5.00,0.00,29.7,26.8,00.0,38.4,31.4,23.0,0000.0,0007.16,0003.21,0002.85
2022-10-03 01:24:00,,0828.8,5.00,0.00,29.7,27.1,00.0,38.4,31.4,22.9,0000.0,0007.23,0003.22,0002.83
2022-10-03 01:25:00,,0828.7,5.00,0.00,29.6,27.4,00.0,38.4,31.4,21.8,0000.0,0007.35,0003.19,0002.80
2022-10-03 01:26:00,,0829.0,5.00,0.00,29.6,27.6,00.0,38.3,31.4,22.1,0000.0,0007.93,0003.19,0002.76
2022-10-03 01:27:00,,0829.1,5.00,0.00,29.6,27.8,00.0,38.3,31.4,21.7,0000.0,0007.90,0003.18,0002.72
2022-10-03 01:28:00,,0828.9,4.99,0.00,29.6,28.0,00.0,38.3,31.4,21.7,0000.0,0007.88,0003.16,0002.66
2022-10-03 01:29:00,,0829.1,5.00,0.00,29.6,28.1,00.0,38.3,31.4,22.9,0000.0,0007.90,0003.15,0002.63
2022-10-03 01:30:00,,0828.8,5.01,0.00,29.6,28.2,00.0,38.3,31.5,21.6,0000.0,0007.83,0003.14,0002.59
2022-10-03 01:31:00,,0828.6,4.99,0.00,29.6,28.3,00.0,38.3,31.5,21.5,0000.0,0007.38,0003.13,0002.55
2022-10-03 01:32:00,,0829.1,5.00,0.00,29.7,28.4,00.0,38.3,31.5,20.8,0000.0,0007.11,0003.08,0002.50
2022-10-03 01:33:00,,0829.1,5.01,0.00,29.7,28.5,00.0,38.3,31.6,20.6,0000.0,0006.08,0003.04,0002.47
2022-10-03 01:34:00,,0828.9,4.98,0.00,29.7,28.5,00.0,38.4,31.6,20.3,0000.0,0006.87,0003.00,0002.43
2022-10-03 01:35:00,,0829.1,5.00,0.00,29.7,28.6,00.0,38.4,31.6,20.0,0000.0,0007.44,0002.96,0002.39
2022-10-03 01:36:00,,0829.0,4.99,0.00,29.7,28.6,00.0,38.4,31.6,19.8,0000.0,0007.25,0003.00,0002.38
2022-10-03 01:37:00,,0828.7,5.01,0.00,29.8,28.7,00.0,38.4,31.7,19.5,0000.0,0006.36,0002.96,0002.36
2022-10-03 01:38:00,,0828.7,4.99,0.00,29.8,28.7,00.0,38.4,31.7,19.4,0000.0,0006.29,0002.93,0002.33
2022-10-03 01:39:00,,0828.9,5.01,0.00,29.8,28.7,00.0,38.4,31.7,19.4,0000.0,0006.18,0002.90,0002.32
2022-10-03 01:40:00,,0829.1,5.01,0.00,29.8,28.8,00.0,38.5,31.7,19.5,0000.0,0006.03,0002.83,0002.30
2022-10-03 01:41:00,,0828.9,5.00,0.00,29.8,28.8,00.0,38.5,31.7,19.7,0000.0,0005.89,0002.78,0002.29
2022-10-03 01:42:00,,0828.9,5.01,0.00,29.9,28.8,00.0,38.5,31.7,20.1,0000.0,0005.72,0002.72,0002.28
2022-10-03 01:43:00,,0828.9,4.98,0.00,29.9,28.8,00.0,38.5,31.8,20.3,0000.0,0005.72,0002.71,0002.29
2022-10-03 01:44:00,,0828.7,5.01,0.00,29.9,28.9,00.0,38.5,31.8,20.7,0000.0,0005.70,0002.71,0002.30
2022-10-03 01:45:00,,0829.2,4.99,0.00,29.9,28.9,00.0,38.6,31.9,20.8,0000.0,0004.62,0002.72,0002.32
2022-10-03 01:46:00,,0829.3,5.00,0.00,30.0,28.9,00.0,38.6,31.9,20.9,0000.0,0003.90,0002.78,0002.37
2022-10-03 01:47:00,,0829.2,5.00,0.00,30.0,28.7,00.0,38.6,31.9,21.1,0000.0,0003.99,0002.79,0002.40
2022-10-03 01:48:00,,0829.0,4.99,0.00,30.0,27.3,00.0,38.6,31.8,21.1,0000.0,0004.08,0002.84,0002.44
2022-10-03 01:49:00,,0828.9,5.01,0.00,29.9,26.5,00.0,38.5,31.7,20.6,0000.0,0004.17,0002.89,0002.47
2022-10-03 01:50:00,,0828.8,5.00,0.00,29.8,26.5,00.0,38.5,31.4,20.4,0000.0,0004.27,0002.94,0002.50
2022-10-03 01:51:00,,0828.8,5.00,0.00,29.7,26.8,00.0,38.5,31.4,20.4,0000.0,0004.20,0002.94,0002.51
2022-10-03 01:52:00,,0828.9,5.01,0.00,29.7,27.1,00.0,38.4,31.3,20.3,0000.0,0004.11,0002.92,0002.51
2022-10-03 01:53:00,,0828.8,5.00,0.00,29.6,27.4,00.0,38.4,31.3,20.1,0000.0,0004.09,0002.89,0002.49
2022-10-03 01:54:00,,0828.7,5.01,0.00,29.6,27.6,00.0,38.4,31.3,20.2,0000.0,0004.07,0002.88,0002.47
2022-10-03 01:55:00,,0828.8,4.99,0.00,29.6,27.8,00.0,38.4,31.4,20.0,0000.0,0004.09,0002.86,0002.43
2022-10-03 01:56:00,,0828.8,5.00,0.00,29.6,27.9,00.0,38.4,31.4,19.8,0000.0,0004.29,0002.82,0002.37
2022-10-03 01:57:00,,0828.7,5.01,0.00,29.6,28.1,00.0,38.3,31.4,19.8,0000.0,0004.21,0002.70,0002.29
2022-10-03 01:58:00,,0828.8,4.99,0.00,29.6,28.2,00.0,38.3,31.4,19.4,0000.0,0003.95,0002.58,0002.21
2022-10-03 01:59:00,,0828.8,4.99,0.00,29.6,28.2,00.0,38.3,31.5,19.2,0000.0,0003.83,0002.46,0002.11
